Regional Weather Roundup
Issued by NWS Newport/Morehead, NC

Home | Current Version | Previous Version | Text Only | Print | Product List | Glossary On
Versions: 1 2 3 4 5 6 7 8 9 10 11 12 13 14 15 16 17 18 19 20 21 22 23 24 25 26 27 28 29 30 31 32 33 34 35 36 37 38 39 40 41 42 43 44 45 46 47 48 49 50
000
ASUS42 KMHX 070025
RWRMHX
WEATHER ROUNDUP FOR EASTERN NORTH CAROLINA
NATIONAL WEATHER SERVICE NEWPORT/MOREHEAD CITY NC
800 PM EDT MON JUL 06 2015

NOTE: "FAIR" INDICATES FEW OR NO CLOUDS BELOW 12,000 FEET
WITH NO SIGNIFICANT WEATHER AND/OR OBSTRUCTIONS TO VISIBILITY

NCZ015>017-031-032-045>047-102-103-070100-
NORTH COAST

CITY           SKY/WX    TMP DP  RH WIND       PRES   REMARKS
EDENTON          N/A     82  74  78 S13G18    30.06F
ELIZABETH CITY CLEAR     82  75  79 S9        30.07F
KITTY HAWK     PTCLDY    82  73  74 S8        30.08F
MANTEO         MOCLDY    81  75  82 S17       30.09F

$$

NCZ045>047-081-094-103-104-070100-
CENTRAL COAST

CITY           SKY/WX    TMP DP  RH WIND       PRES   REMARKS
FRISCO         PTCLDY    79  74  84 S13       30.11F
SWANQUARTER      N/A     82 N/A N/A S15G21    30.06S

$$

NCZ095-097-098-100-101-070100-
SOUTHERN COAST

CITY           SKY/WX    TMP DP  RH WIND       PRES   REMARKS
BEAUFORT       CLEAR     80  74  81 S17       30.11S
CEDAR ISLAND     N/A     81 N/A N/A SW6G16    30.15S
JACKSONVILLE   PTCLDY    79  72  79 S12       30.10R
PINEY ISLAND   PTCLDY   N/A N/A N/A S13       30.10S
WILMINGTON     PTCLDY    81  71  71 SW9       30.11R


$$

NCZ011>013-027>030-043-044-078>080-089-090>093-098-070100-
COASTAL PLAIN

CITY           SKY/WX    TMP DP  RH WIND       PRES   REMARKS
AHOSKIE        CLEAR     80  74  81 S3        30.06R
CLINTON        MOCLDY    86  72  62 S8        30.08S
ELIZABETHTOWN  PTCLDY    79  67  66 S5        30.10S
GOLDSBORO      CLEAR     87  69  55 CALM      30.05R
GREENVILLE     CLEAR     84  72  65 S13       30.08S
HAVELOCK       PTCLDY    81  72  74 SW13      30.12R
KENANSVILLE    PTCLDY    81  69  68 S3        30.10R
KINSTON        PTCLDY    82  72  69 S10       30.08R
NEW BERN       CLEAR     81  71  71 S9        30.11R
RICHLANDS      MOCLDY    79  70  73 S8        30.09F
ROCKY MOUNT    CLEAR     85  69  58 S5        30.06R
WASHINGTON     CLEAR     82  71  70 S7        30.08S
WHITEVILLE     CLOUDY    78  71  79 E3        30.10S

$$

AMZ130-135-150-152-154-156-158-170-250-252-270-ANZ085-086-088-633-658-670-070100-
MARINE OBSERVATIONS

STATION/POSITION TIME  TEMP    WIND        PRES    WAVE   SWELL
                       AIR SEA DIR/SP/G            HT/PER HT/PER
                 (UTC) (F)     (DEG/KT/KT) (MB)    (FT/S) (FT/S)
CHESAPEAKE LIGHT 0000   79     170/ 16/ 18 1018.5
64 E VA BEACH    2350   78 77  180/ 12/ 14 1018.7    3/ 9   2/ 9
DUCK             0000   82 78  180/ 16/ 18   N/A
2 E DUCK         2311      77                N/A     2/ 9
OREGON INLET     0000   81 82  190/ 17/ 20 1019.1
13E OREGON INLT  0000      78                N/A     3/ 8   2/13
HATTERAS CG      0000   81 81  170/  8/ 13 1019.3
DIAMOND BUOY     2350   81 81  190/ 16/ 19 1019.6    3/ 4   2/ 7
CAPE LOOKOUT     0000   80     200/ 10/ 13 1019.4
BEAUFORT LAB     0000   81 83  200/ 13/ 17 1018.9
30 SE NEW RVR IN NOT AVBL
27 SE WRIGHTSVLE 0000      80  210/ 12/ 14   N/A
5 SE WRIGHTSVLE  2308   81 79  200/ 17/ 21 1019.2
225 S CAPE HAT   2350   81 80  220/  8/ 10 1022.0    4/ 8   3/ 8
41 SE CHARLESTON 2350   81 83  200/ 12/ 12 1019.2    3/ 9   2/ 9

$$


USA.gov is the U.S. government's official web portal to all federal, state and local government web resources and services.